Calgary Springbank, Alberta

2:52 AM MST on February 10, 2016 (GMT -0700)
Springbank

Weather History for CYBW - June, 2013

Change the Weather History Date:

Saturday, June 8, 2013

  Actual Average Record
Temperature  
Mean Temperature 51 °F -  
Max Temperature 65 °F 63 °F 86 °F (2015)
Min Temperature 37 °F 41 °F 23 °F (1999)
Degree Days  
Heating Degree Days 14    
Growing Degree Days 1 (Base 50)    
Moisture  
Dew Point 42 °F    
Average Humidity 63    
Maximum Humidity 93    
Minimum Humidity 34    
Precipitation  
Precipitation 0.02 in - - ()
Sea Level Pressure  
Sea Level Pressure 29.96 in    
Wind  
Wind Speed 7 mph ()    
Max Wind Speed 10 mph    
Max Gust Speed -    
Averages and records for this station are not official NWS values.
T = Trace of Precipitation, MM = Missing Value Source: Averaged Metar Reports

Daily Weather History Graph

Daily Weather History Graph

Search for Another Location

Airport or City:

Trip Planner

Search our weather history database for the weather conditions in past years. The results will help you decide how hot, cold, wet, or windy it might be!

Date:

Astronomy

Jun. 08, 2013 Rise Set
Actual Time 5:23 AM MDT 9:50 PM MDT
Civil Twilight 4:37 AM MDT 10:36 PM MDT
Nautical Twilight 3:28 AM MDT 11:45 PM MDT
Astronomical Twilight 2:08 AM MDT 1:04 AM MDT
Moon 5:42 AM MDT (6/8) 9:48 PM MDT (6/8)
Length of Visible Light 17h 58m
Length of Day
16h 26m
New Moon, 0% of the Moon is Illuminated
Jun 8
New Moon
Jun 16
First Quarter
Jun 23
Full
Jun 29
Last Quarter
Jul 8
New

Hourly Weather History & Observations

Time (MDT) Temp. Windchill Dew Point Humidity Pressure Visibility Wind Dir Wind Speed Gust Speed Precip Events Conditions
5:00 AM 39.2 °F 32.5 °F 37.4 °F 93% 29.99 in 25.0 mi West 10.4 mph - N/A   Mostly Cloudy
6:00 AM 42 °F - 40 °F 90% 30.01 in 28 mi West 8.1 mph - -   Partly Cloudy
6:00 AM 42.8 °F 38.0 °F 39.2 °F 87% 30.01 in 30.0 mi West 8.1 mph - N/A   Scattered Clouds
7:00 AM 44.6 °F 40.7 °F 42.8 °F 93% 30.00 in 30.0 mi West 6.9 mph - N/A   Clear
8:00 AM 51.8 °F - 42.8 °F 71% 29.99 in 30.0 mi NW 6.9 mph - N/A   Clear
9:00 AM 55.4 °F - 42.8 °F 63% 30.00 in 30.0 mi NNW 5.8 mph - N/A   Partly Cloudy
10:00 AM 57.2 °F - 37.4 °F 48% 30.00 in 30.0 mi North 4.6 mph - N/A   Partly Cloudy
11:00 AM 59.0 °F - 39.2 °F 48% 29.98 in 30.0 mi East 3.5 mph - N/A   Partly Cloudy
12:00 PM 60 °F - 39 °F 34% 29.96 in 28 mi SSE 5.8 mph - -   Partly Cloudy
12:00 PM 60.8 °F - 39.2 °F 45% 29.96 in 30.0 mi SSW 5.8 mph - N/A   Scattered Clouds
1:00 PM 62.6 °F - 39.2 °F 42% 29.94 in 30.0 mi South 8.1 mph - N/A   Scattered Clouds
2:00 PM 62.6 °F - 42.8 °F 48% 29.93 in 30.0 mi South 8.1 mph - N/A   Mostly Cloudy
3:00 PM 64.4 °F - 42.8 °F 45% 29.92 in 30.0 mi SSE 3.5 mph - N/A   Mostly Cloudy
4:00 PM 62.6 °F - 42.8 °F 48% 29.89 in 30.0 mi ESE 10.4 mph - N/A   Mostly Cloudy
5:00 PM 62.6 °F - 42.8 °F 48% 29.91 in 30.0 mi East 8.1 mph - N/A   Overcast
5:36 PM 59.0 °F - 44.6 °F 59% 29.93 in 30.0 mi ENE 9.2 mph - N/A Rain Light Rain Showers
6:00 PM 59 °F - 45 °F 50% 29.94 in 28 mi NNE 6.9 mph - - Rain Light Rain Showers
6:00 PM 59.0 °F - 44.6 °F 59% 29.94 in 30.0 mi North 6.9 mph - N/A   Overcast
7:00 PM 59.0 °F - 48.2 °F 67% 29.94 in 30.0 mi NE 8.1 mph - N/A   Mostly Cloudy
8:00 PM 55.4 °F - 46.4 °F 72% 29.94 in 30.0 mi ENE 9.2 mph - N/A   Mostly Cloudy
9:00 PM 51.8 °F - 46.4 °F 82% 29.97 in 30.0 mi NNE 9.2 mph - N/A   Mostly Cloudy
10:00 PM 46.4 °F 45.2 °F 42.8 °F 87% 29.99 in 30.0 mi NNW 3.5 mph - N/A   Scattered Clouds